#datetime,building,power
2023-02-02T00:00:00,pst,18.23
2023-02-02T00:01:00,pst,18.29
2023-02-02T00:02:00,pst,18.32
2023-02-02T00:03:00,pst,18.47
2023-02-02T00:04:00,pst,18.39
2023-02-02T00:05:00,pst,18.46
2023-02-02T00:06:00,pst,18.59
2023-02-02T00:07:00,pst,18.42
2023-02-02T00:08:00,pst,19.10
2023-02-02T00:09:00,pst,19.18
2023-02-02T00:10:00,pst,19.19
2023-02-02T00:11:00,pst,19.41
2023-02-02T00:12:00,pst,19.42
2023-02-02T00:13:00,pst,19.40
2023-02-02T00:14:00,pst,19.36
2023-02-02T00:15:00,pst,18.74
2023-02-02T00:16:00,pst,18.69
2023-02-02T00:17:00,pst,18.66
2023-02-02T00:18:00,pst,18.66
2023-02-02T00:19:00,pst,18.62
2023-02-02T00:20:00,pst,18.46
2023-02-02T00:21:00,pst,18.58
2023-02-02T00:22:00,pst,18.65
2023-02-02T00:23:00,pst,18.54
2023-02-02T00:24:00,pst,19.28
2023-02-02T00:25:00,pst,19.32
2023-02-02T00:26:00,pst,15.25
2023-02-02T00:27:00,pst,15.25
2023-02-02T00:28:00,pst,15.31
2023-02-02T00:29:00,pst,15.09
2023-02-02T00:30:00,pst,14.37
2023-02-02T00:31:00,pst,14.37
2023-02-02T00:32:00,pst,14.31
2023-02-02T00:33:00,pst,14.54
2023-02-02T00:34:00,pst,14.84
2023-02-02T00:35:00,pst,14.81
2023-02-02T00:36:00,pst,14.75
2023-02-02T00:37:00,pst,14.62
2023-02-02T00:38:00,pst,14.55
2023-02-02T00:39:00,pst,14.67
2023-02-02T00:40:00,pst,14.94
2023-02-02T00:41:00,pst,14.94
2023-02-02T00:42:00,pst,14.94
2023-02-02T00:43:00,pst,14.99
2023-02-02T00:44:00,pst,15.06
2023-02-02T00:45:00,pst,13.97
2023-02-02T00:46:00,pst,14.10
2023-02-02T00:47:00,pst,14.08
2023-02-02T00:48:00,pst,14.03
2023-02-02T00:49:00,pst,14.01
2023-02-02T00:50:00,pst,14.23
2023-02-02T00:51:00,pst,14.25
2023-02-02T00:52:00,pst,14.23
2023-02-02T00:53:00,pst,14.18
2023-02-02T00:54:00,pst,14.86
2023-02-02T00:55:00,pst,14.85
2023-02-02T00:56:00,pst,14.60
2023-02-02T00:57:00,pst,14.58
2023-02-02T00:58:00,pst,14.58
2023-02-02T00:59:00,pst,14.46
2023-02-02T01:00:00,pst,13.84
2023-02-02T01:01:00,pst,13.88
2023-02-02T01:02:00,pst,23.14
2023-02-02T01:03:00,pst,14.17
2023-02-02T01:04:00,pst,14.14
2023-02-02T01:05:00,pst,14.06
2023-02-02T01:06:00,pst,14.21
2023-02-02T01:07:00,pst,14.09
2023-02-02T01:08:00,pst,14.69
2023-02-02T01:09:00,pst,14.69
2023-02-02T01:10:00,pst,14.78
2023-02-02T01:11:00,pst,14.71
2023-02-02T01:12:00,pst,14.72
2023-02-02T01:13:00,pst,14.89
2023-02-02T01:14:00,pst,14.17
2023-02-02T01:15:00,pst,14.23
2023-02-02T01:16:00,pst,14.22
2023-02-02T01:17:00,pst,14.29
2023-02-02T01:18:00,pst,14.51
2023-02-02T01:19:00,pst,14.50
2023-02-02T01:20:00,pst,14.40
2023-02-02T01:21:00,pst,14.33
2023-02-02T01:22:00,pst,14.35
2023-02-02T01:23:00,pst,15.18
2023-02-02T01:24:00,pst,15.13
2023-02-02T01:25:00,pst,14.93
2023-02-02T01:26:00,pst,14.88
2023-02-02T01:27:00,pst,14.89
2023-02-02T01:28:00,pst,14.95
2023-02-02T01:29:00,pst,14.43
2023-02-02T01:30:00,pst,14.32
2023-02-02T01:31:00,pst,14.37
2023-02-02T01:32:00,pst,14.17
2023-02-02T01:33:00,pst,14.54
2023-02-02T01:34:00,pst,14.53
2023-02-02T01:35:00,pst,14.35
2023-02-02T01:36:00,pst,14.35
2023-02-02T01:37:00,pst,14.05
2023-02-02T01:38:00,pst,14.51
2023-02-02T01:39:00,pst,14.63
2023-02-02T01:40:00,pst,14.58
2023-02-02T01:41:00,pst,14.66
2023-02-02T01:42:00,pst,14.61
2023-02-02T01:43:00,pst,14.24
2023-02-02T01:44:00,pst,14.01
2023-02-02T01:45:00,pst,14.07
2023-02-02T01:46:00,pst,14.16
2023-02-02T01:47:00,pst,14.10
2023-02-02T01:48:00,pst,14.09
2023-02-02T01:49:00,pst,14.06
2023-02-02T01:50:00,pst,14.09
2023-02-02T01:51:00,pst,14.09
2023-02-02T01:52:00,pst,14.22
2023-02-02T01:53:00,pst,14.89
2023-02-02T01:54:00,pst,14.98
2023-02-02T01:55:00,pst,14.88
2023-02-02T01:56:00,pst,14.87
2023-02-02T01:57:00,pst,14.82
2023-02-02T01:58:00,pst,14.05
2023-02-02T01:59:00,pst,14.08
2023-02-02T02:00:00,pst,13.95
2023-02-02T02:01:00,pst,14.02
2023-02-02T02:02:00,pst,13.96
2023-02-02T02:03:00,pst,14.07
2023-02-02T02:04:00,pst,13.98
2023-02-02T02:05:00,pst,14.16
2023-02-02T02:06:00,pst,14.03
2023-02-02T02:07:00,pst,14.83
2023-02-02T02:08:00,pst,14.78
2023-02-02T02:09:00,pst,23.58
2023-02-02T02:10:00,pst,23.42
2023-02-02T02:11:00,pst,23.29
2023-02-02T02:12:00,pst,15.08
2023-02-02T02:13:00,pst,14.74
2023-02-02T02:14:00,pst,14.69
2023-02-02T02:15:00,pst,14.69
2023-02-02T02:16:00,pst,14.60
2023-02-02T02:17:00,pst,14.39
2023-02-02T02:18:00,pst,14.12
2023-02-02T02:19:00,pst,14.12
2023-02-02T02:20:00,pst,14.16
2023-02-02T02:21:00,pst,14.76
2023-02-02T02:22:00,pst,14.63
2023-02-02T02:23:00,pst,14.78
2023-02-02T02:24:00,pst,14.78
2023-02-02T02:25:00,pst,14.90
2023-02-02T02:26:00,pst,15.07
2023-02-02T02:27:00,pst,15.10
2023-02-02T02:28:00,pst,14.38
2023-02-02T02:29:00,pst,14.15
2023-02-02T02:30:00,pst,14.15
2023-02-02T02:31:00,pst,14.16
2023-02-02T02:32:00,pst,14.08
2023-02-02T02:33:00,pst,14.17
2023-02-02T02:34:00,pst,14.06
2023-02-02T02:35:00,pst,14.04
2023-02-02T02:36:00,pst,13.97
2023-02-02T02:37:00,pst,14.66
2023-02-02T02:38:00,pst,14.73
2023-02-02T02:39:00,pst,14.69
2023-02-02T02:40:00,pst,14.55
2023-02-02T02:41:00,pst,14.59
2023-02-02T02:42:00,pst,13.89
2023-02-02T02:43:00,pst,13.93
2023-02-02T02:44:00,pst,13.99
2023-02-02T02:45:00,pst,14.00
2023-02-02T02:46:00,pst,14.01
2023-02-02T02:47:00,pst,13.94
2023-02-02T02:48:00,pst,13.89
2023-02-02T02:49:00,pst,13.88
2023-02-02T02:50:00,pst,13.88
2023-02-02T02:51:00,pst,14.47
2023-02-02T02:52:00,pst,14.43
2023-02-02T02:53:00,pst,14.71
2023-02-02T02:54:00,pst,14.67
2023-02-02T02:55:00,pst,14.58
2023-02-02T02:56:00,pst,14.60
2023-02-02T02:57:00,pst,13.91
2023-02-02T02:58:00,pst,14.20
2023-02-02T02:59:00,pst,14.19
2023-02-02T03:00:00,pst,14.35
2023-02-02T03:01:00,pst,14.34
2023-02-02T03:02:00,pst,14.33
2023-02-02T03:03:00,pst,14.27
2023-02-02T03:04:00,pst,14.53
2023-02-02T03:05:00,pst,14.58
2023-02-02T03:06:00,pst,15.16
2023-02-02T03:07:00,pst,15.15
2023-02-02T03:08:00,pst,15.01
2023-02-02T03:09:00,pst,15.06
2023-02-02T03:10:00,pst,14.85
2023-02-02T03:11:00,pst,14.92
2023-02-02T03:12:00,pst,14.25
2023-02-02T03:13:00,pst,14.25
2023-02-02T03:14:00,pst,14.14
2023-02-02T03:15:00,pst,14.06
2023-02-02T03:16:00,pst,14.25
2023-02-02T03:17:00,pst,14.27
2023-02-02T03:18:00,pst,14.20
2023-02-02T03:19:00,pst,14.18
2023-02-02T03:20:00,pst,14.10
2023-02-02T03:21:00,pst,14.52
2023-02-02T03:22:00,pst,14.51
2023-02-02T03:23:00,pst,14.58
2023-02-02T03:24:00,pst,14.66
2023-02-02T03:25:00,pst,14.63
2023-02-02T03:26:00,pst,14.51
2023-02-02T03:27:00,pst,13.81
2023-02-02T03:28:00,pst,13.82
2023-02-02T03:29:00,pst,13.70
2023-02-02T03:30:00,pst,13.69
2023-02-02T03:31:00,pst,13.72
2023-02-02T03:32:00,pst,13.67
2023-02-02T03:33:00,pst,13.69
2023-02-02T03:34:00,pst,13.98
2023-02-02T03:35:00,pst,13.86
2023-02-02T03:36:00,pst,14.44
2023-02-02T03:37:00,pst,14.93
2023-02-02T03:38:00,pst,15.00
2023-02-02T03:39:00,pst,15.00
2023-02-02T03:40:00,pst,15.03
2023-02-02T03:41:00,pst,15.28
2023-02-02T03:42:00,pst,14.38
2023-02-02T03:43:00,pst,14.20
2023-02-02T03:44:00,pst,14.23
2023-02-02T03:45:00,pst,14.22
2023-02-02T03:46:00,pst,14.23
2023-02-02T03:47:00,pst,14.07
2023-02-02T03:48:00,pst,13.92
2023-02-02T03:49:00,pst,13.97
2023-02-02T03:50:00,pst,13.66
2023-02-02T03:51:00,pst,14.27
2023-02-02T03:52:00,pst,14.31
2023-02-02T03:53:00,pst,14.38
2023-02-02T03:54:00,pst,14.38
2023-02-02T03:55:00,pst,14.52
2023-02-02T03:56:00,pst,14.50
2023-02-02T03:57:00,pst,13.70
2023-02-02T03:58:00,pst,13.72
2023-02-02T03:59:00,pst,13.72
2023-02-02T04:00:00,pst,13.79
2023-02-02T04:01:00,pst,13.77
2023-02-02T04:02:00,pst,13.97
2023-02-02T04:03:00,pst,14.02
2023-02-02T04:04:00,pst,14.05
2023-02-02T04:05:00,pst,14.22
2023-02-02T04:06:00,pst,14.83
2023-02-02T04:07:00,pst,14.94
2023-02-02T04:08:00,pst,15.07
2023-02-02T04:09:00,pst,15.01
2023-02-02T04:10:00,pst,15.02
2023-02-02T04:11:00,pst,14.26
2023-02-02T04:12:00,pst,14.08
2023-02-02T04:13:00,pst,14.07
2023-02-02T04:14:00,pst,14.09
2023-02-02T04:15:00,pst,14.18
2023-02-02T04:16:00,pst,14.22
2023-02-02T04:17:00,pst,14.18
2023-02-02T04:18:00,pst,14.17
2023-02-02T04:19:00,pst,14.00
2023-02-02T04:20:00,pst,15.82
2023-02-02T04:21:00,pst,14.62
2023-02-02T04:22:00,pst,14.58
2023-02-02T04:23:00,pst,14.52
2023-02-02T04:24:00,pst,14.57
2023-02-02T04:25:00,pst,14.72
2023-02-02T04:26:00,pst,14.70
2023-02-02T04:27:00,pst,13.97
2023-02-02T04:28:00,pst,14.02
2023-02-02T04:29:00,pst,14.01
2023-02-02T04:30:00,pst,13.97
2023-02-02T04:31:00,pst,13.96
2023-02-02T04:32:00,pst,13.95
2023-02-02T04:33:00,pst,13.91
2023-02-02T04:34:00,pst,13.82
2023-02-02T04:35:00,pst,14.97
2023-02-02T04:36:00,pst,14.57
2023-02-02T04:37:00,pst,14.50
2023-02-02T04:38:00,pst,14.25
2023-02-02T04:39:00,pst,14.25
2023-02-02T04:40:00,pst,14.36
2023-02-02T04:41:00,pst,13.69
2023-02-02T04:42:00,pst,13.94
2023-02-02T04:43:00,pst,13.87
2023-02-02T04:44:00,pst,13.86
2023-02-02T04:45:00,pst,13.92
2023-02-02T04:46:00,pst,14.00
2023-02-02T04:47:00,pst,13.86
2023-02-02T04:48:00,pst,13.86
2023-02-02T04:49:00,pst,13.91
2023-02-02T04:50:00,pst,23.44
2023-02-02T04:51:00,pst,23.27
2023-02-02T04:52:00,pst,23.17
2023-02-02T04:53:00,pst,23.04
2023-02-02T04:54:00,pst,15.03
2023-02-02T04:55:00,pst,15.07
2023-02-02T04:56:00,pst,14.26
2023-02-02T04:57:00,pst,14.41
2023-02-02T04:58:00,pst,14.43
2023-02-02T04:59:00,pst,14.08
2023-02-02T05:00:00,pst,14.08
2023-02-02T05:01:00,pst,14.11
2023-02-02T05:02:00,pst,13.59
2023-02-02T05:03:00,pst,13.86
2023-02-02T05:04:00,pst,13.72
2023-02-02T05:05:00,pst,14.53
2023-02-02T05:06:00,pst,14.66
2023-02-02T05:07:00,pst,14.72
2023-02-02T05:08:00,pst,14.64
2023-02-02T05:09:00,pst,14.66
2023-02-02T05:10:00,pst,14.70
2023-02-02T05:11:00,pst,14.04
2023-02-02T05:12:00,pst,13.88
2023-02-02T05:13:00,pst,13.82
2023-02-02T05:14:00,pst,13.81
2023-02-02T05:15:00,pst,13.71
2023-02-02T05:16:00,pst,14.07
2023-02-02T05:17:00,pst,14.14
2023-02-02T05:18:00,pst,13.99
2023-02-02T05:19:00,pst,14.07
2023-02-02T05:20:00,pst,14.58
2023-02-02T05:21:00,pst,14.75
2023-02-02T05:22:00,pst,14.83
2023-02-02T05:23:00,pst,14.84
2023-02-02T05:24:00,pst,14.82
2023-02-02T05:25:00,pst,14.90
2023-02-02T05:26:00,pst,14.20
2023-02-02T05:27:00,pst,14.16
2023-02-02T05:28:00,pst,14.07
2023-02-02T05:29:00,pst,13.97
2023-02-02T05:30:00,pst,13.89
2023-02-02T05:31:00,pst,13.88
2023-02-02T05:32:00,pst,13.85
2023-02-02T05:33:00,pst,13.84
2023-02-02T05:34:00,pst,13.85
2023-02-02T05:35:00,pst,14.62
2023-02-02T05:36:00,pst,14.65
2023-02-02T05:37:00,pst,14.81
2023-02-02T05:38:00,pst,14.70
2023-02-02T05:39:00,pst,14.68
2023-02-02T05:40:00,pst,14.68
2023-02-02T05:41:00,pst,13.89
2023-02-02T05:42:00,pst,13.77
2023-02-02T05:43:00,pst,13.72
2023-02-02T05:44:00,pst,13.61
2023-02-02T05:45:00,pst,13.63
2023-02-02T05:46:00,pst,13.66
2023-02-02T05:47:00,pst,13.77
2023-02-02T05:48:00,pst,13.68
2023-02-02T05:49:00,pst,13.87
2023-02-02T05:50:00,pst,14.65
2023-02-02T05:51:00,pst,14.76
2023-02-02T05:52:00,pst,14.77
2023-02-02T05:53:00,pst,14.77
2023-02-02T05:54:00,pst,14.85
2023-02-02T05:55:00,pst,14.79
2023-02-02T05:56:00,pst,14.09
2023-02-02T05:57:00,pst,14.45
2023-02-02T05:58:00,pst,14.37
2023-02-02T05:59:00,pst,14.24
2023-02-02T06:00:00,pst,14.24
2023-02-02T06:01:00,pst,14.27
2023-02-02T06:02:00,pst,14.05
2023-02-02T06:03:00,pst,14.00
2023-02-02T06:04:00,pst,13.57
2023-02-02T06:05:00,pst,14.44
2023-02-02T06:06:00,pst,14.46
2023-02-02T06:07:00,pst,14.51
2023-02-02T06:08:00,pst,14.63
2023-02-02T06:09:00,pst,14.44
2023-02-02T06:10:00,pst,14.40
2023-02-02T06:11:00,pst,13.70
2023-02-02T06:12:00,pst,14.09
2023-02-02T06:13:00,pst,14.08
2023-02-02T06:14:00,pst,14.09
2023-02-02T06:15:00,pst,14.27
2023-02-02T06:16:00,pst,14.32
2023-02-02T06:17:00,pst,13.93
2023-02-02T06:18:00,pst,13.96
2023-02-02T06:19:00,pst,13.70
2023-02-02T06:20:00,pst,14.37
2023-02-02T06:21:00,pst,14.45
2023-02-02T06:22:00,pst,14.59
2023-02-02T06:23:00,pst,14.55
2023-02-02T06:24:00,pst,14.68
2023-02-02T06:25:00,pst,14.88
2023-02-02T06:26:00,pst,14.29
2023-02-02T06:27:00,pst,14.00
2023-02-02T06:28:00,pst,14.04
2023-02-02T06:29:00,pst,14.03
2023-02-02T06:30:00,pst,14.03
2023-02-02T06:31:00,pst,13.97
2023-02-02T06:32:00,pst,14.08
2023-02-02T06:33:00,pst,14.06
2023-02-02T06:34:00,pst,14.09
2023-02-02T06:35:00,pst,14.04
2023-02-02T06:36:00,pst,14.34
2023-02-02T06:37:00,pst,14.78
2023-02-02T06:38:00,pst,14.81
2023-02-02T06:39:00,pst,14.72
2023-02-02T06:40:00,pst,14.61
2023-02-02T06:41:00,pst,14.87
2023-02-02T06:42:00,pst,14.97
2023-02-02T06:43:00,pst,14.99
2023-02-02T06:44:00,pst,14.88
2023-02-02T06:45:00,pst,14.88
2023-02-02T06:46:00,pst,14.84
2023-02-02T06:47:00,pst,14.91
2023-02-02T06:48:00,pst,13.82
2023-02-02T06:49:00,pst,14.04
2023-02-02T06:50:00,pst,13.86
2023-02-02T06:51:00,pst,13.65
2023-02-02T06:52:00,pst,13.52
2023-02-02T06:53:00,pst,13.51
2023-02-02T06:54:00,pst,13.52
2023-02-02T06:55:00,pst,13.50
2023-02-02T06:56:00,pst,13.54
2023-02-02T06:57:00,pst,13.53
2023-02-02T06:58:00,pst,13.57
2023-02-02T06:59:00,pst,13.62
2023-02-02T07:00:00,pst,13.82
2023-02-02T07:01:00,pst,13.77
2023-02-02T07:02:00,pst,8.22
2023-02-02T07:03:00,pst,8.88
2023-02-02T07:04:00,pst,8.92
2023-02-02T07:05:00,pst,9.34
2023-02-02T07:06:00,pst,9.22
2023-02-02T07:07:00,pst,9.21
2023-02-02T07:08:00,pst,9.21
2023-02-02T07:09:00,pst,9.20
2023-02-02T07:10:00,pst,8.62
2023-02-02T07:11:00,pst,8.49
2023-02-02T07:12:00,pst,8.54
2023-02-02T07:13:00,pst,8.60
2023-02-02T07:14:00,pst,8.49
2023-02-02T07:15:00,pst,8.49
2023-02-02T07:16:00,pst,8.34
2023-02-02T07:17:00,pst,8.41
2023-02-02T07:18:00,pst,9.40
2023-02-02T07:19:00,pst,9.20
2023-02-02T07:20:00,pst,9.37
2023-02-02T07:21:00,pst,9.31
2023-02-02T07:22:00,pst,9.21
2023-02-02T07:23:00,pst,8.81
2023-02-02T07:24:00,pst,8.10
2023-02-02T07:25:00,pst,17.08
2023-02-02T07:26:00,pst,17.03
2023-02-02T07:27:00,pst,21.04
2023-02-02T07:28:00,pst,20.87
2023-02-02T07:29:00,pst,12.50
2023-02-02T07:30:00,pst,13.04
2023-02-02T07:31:00,pst,12.88
2023-02-02T07:32:00,pst,12.84
2023-02-02T07:33:00,pst,13.48
2023-02-02T07:34:00,pst,14.27
2023-02-02T07:35:00,pst,13.84
2023-02-02T07:36:00,pst,13.65
2023-02-02T07:37:00,pst,13.62
2023-02-02T07:38:00,pst,14.20
2023-02-02T07:39:00,pst,13.53
2023-02-02T07:40:00,pst,13.76
2023-02-02T07:41:00,pst,13.72
2023-02-02T07:42:00,pst,13.58
2023-02-02T07:43:00,pst,13.23
2023-02-02T07:44:00,pst,13.29
2023-02-02T07:45:00,pst,13.96
2023-02-02T07:46:00,pst,14.56
2023-02-02T07:47:00,pst,14.60
2023-02-02T07:48:00,pst,23.95
2023-02-02T07:49:00,pst,23.79
2023-02-02T07:50:00,pst,23.26
2023-02-02T07:51:00,pst,23.32
2023-02-02T07:52:00,pst,23.25
2023-02-02T07:53:00,pst,23.09
2023-02-02T07:54:00,pst,23.11
2023-02-02T07:55:00,pst,23.10
2023-02-02T07:56:00,pst,22.93
2023-02-02T07:57:00,pst,22.94
2023-02-02T07:58:00,pst,22.92
2023-02-02T07:59:00,pst,22.15
2023-02-02T08:00:00,pst,22.10
2023-02-02T08:01:00,pst,22.16
2023-02-02T08:02:00,pst,22.04
2023-02-02T08:03:00,pst,21.93
2023-02-02T08:04:00,pst,14.23
2023-02-02T08:05:00,pst,14.21
2023-02-02T08:06:00,pst,14.25
2023-02-02T08:07:00,pst,14.21
2023-02-02T08:08:00,pst,14.49
2023-02-02T08:09:00,pst,14.72
2023-02-02T08:10:00,pst,13.97
2023-02-02T08:11:00,pst,14.02
2023-02-02T08:12:00,pst,22.96
2023-02-02T08:13:00,pst,19.28
2023-02-02T08:14:00,pst,23.00
2023-02-02T08:15:00,pst,23.60
2023-02-02T08:16:00,pst,23.55
2023-02-02T08:17:00,pst,23.67
2023-02-02T08:18:00,pst,19.39
2023-02-02T08:19:00,pst,23.48
2023-02-02T08:20:00,pst,24.04
2023-02-02T08:21:00,pst,23.32
2023-02-02T08:22:00,pst,11.04
2023-02-02T08:23:00,pst,10.80
2023-02-02T08:24:00,pst,10.38
2023-02-02T08:25:00,pst,10.08
2023-02-02T08:26:00,pst,10.68
2023-02-02T08:27:00,pst,9.69
2023-02-02T08:28:00,pst,8.88
2023-02-02T08:29:00,pst,8.93
2023-02-02T08:30:00,pst,9.06
2023-02-02T08:31:00,pst,36.55
2023-02-02T08:32:00,pst,18.28
2023-02-02T08:33:00,pst,18.00
2023-02-02T08:34:00,pst,17.84
2023-02-02T08:35:00,pst,17.92
2023-02-02T08:36:00,pst,17.89
2023-02-02T08:37:00,pst,17.87
2023-02-02T08:38:00,pst,17.99
2023-02-02T08:39:00,pst,18.63
2023-02-02T08:40:00,pst,18.46
2023-02-02T08:41:00,pst,18.70
2023-02-02T08:42:00,pst,18.69
2023-02-02T08:43:00,pst,10.49
2023-02-02T08:44:00,pst,19.15
2023-02-02T08:45:00,pst,19.19
2023-02-02T08:46:00,pst,9.87
2023-02-02T08:47:00,pst,9.83
2023-02-02T08:48:00,pst,10.05
2023-02-02T08:49:00,pst,10.04
2023-02-02T08:50:00,pst,9.92
2023-02-02T08:51:00,pst,10.76
2023-02-02T08:52:00,pst,22.92
2023-02-02T08:53:00,pst,10.93
2023-02-02T08:54:00,pst,10.94
2023-02-02T08:55:00,pst,12.44
2023-02-02T08:56:00,pst,11.71
2023-02-02T08:57:00,pst,11.65
2023-02-02T08:58:00,pst,10.44
2023-02-02T08:59:00,pst,10.60
2023-02-02T09:00:00,pst,11.22
2023-02-02T09:01:00,pst,11.26
2023-02-02T09:02:00,pst,11.11
2023-02-02T09:03:00,pst,11.41
2023-02-02T09:04:00,pst,11.51
2023-02-02T09:05:00,pst,10.64
2023-02-02T09:06:00,pst,10.60
2023-02-02T09:07:00,pst,10.62
2023-02-02T09:08:00,pst,9.93
2023-02-02T09:09:00,pst,9.84
2023-02-02T09:10:00,pst,9.89
2023-02-02T09:11:00,pst,9.79
2023-02-02T09:12:00,pst,9.92
2023-02-02T09:13:00,pst,10.89
2023-02-02T09:14:00,pst,11.05
2023-02-02T09:15:00,pst,11.82
2023-02-02T09:16:00,pst,11.79
2023-02-02T09:17:00,pst,12.47
2023-02-02T09:18:00,pst,11.60
2023-02-02T09:19:00,pst,20.21
2023-02-02T09:20:00,pst,19.19
2023-02-02T09:21:00,pst,18.37
2023-02-02T09:22:00,pst,18.21
2023-02-02T09:23:00,pst,9.83
2023-02-02T09:24:00,pst,9.77
2023-02-02T09:25:00,pst,9.60
2023-02-02T09:26:00,pst,9.63
2023-02-02T09:27:00,pst,10.47
2023-02-02T09:28:00,pst,9.60
2023-02-02T09:29:00,pst,9.74
2023-02-02T09:30:00,pst,10.34
2023-02-02T09:31:00,pst,11.05
2023-02-02T09:32:00,pst,11.18
2023-02-02T09:33:00,pst,12.28
2023-02-02T09:34:00,pst,11.56
2023-02-02T09:35:00,pst,11.77
2023-02-02T09:36:00,pst,9.87
2023-02-02T09:37:00,pst,10.92
2023-02-02T09:38:00,pst,9.98
2023-02-02T09:39:00,pst,9.84
2023-02-02T09:40:00,pst,9.95
2023-02-02T09:41:00,pst,9.89
2023-02-02T09:42:00,pst,9.75
2023-02-02T09:43:00,pst,9.71
2023-02-02T09:44:00,pst,9.51
2023-02-02T09:45:00,pst,21.26
2023-02-02T09:46:00,pst,9.18
2023-02-02T09:47:00,pst,9.07
2023-02-02T09:48:00,pst,9.09
2023-02-02T09:49:00,pst,9.18
2023-02-02T09:50:00,pst,9.19
2023-02-02T09:51:00,pst,9.21
2023-02-02T09:52:00,pst,9.18
2023-02-02T09:53:00,pst,9.32
2023-02-02T09:54:00,pst,9.15
2023-02-02T09:55:00,pst,10.03
2023-02-02T09:56:00,pst,9.57
2023-02-02T09:57:00,pst,9.48
2023-02-02T09:58:00,pst,9.47
2023-02-02T09:59:00,pst,10.14
2023-02-02T10:00:00,pst,10.17
2023-02-02T10:01:00,pst,10.00
2023-02-02T10:02:00,pst,9.99
2023-02-02T10:03:00,pst,10.08
2023-02-02T10:04:00,pst,9.42
2023-02-02T10:05:00,pst,9.38
2023-02-02T10:06:00,pst,21.71
2023-02-02T10:07:00,pst,9.68
2023-02-02T10:08:00,pst,18.72
2023-02-02T10:09:00,pst,18.37
2023-02-02T10:10:00,pst,18.32
2023-02-02T10:11:00,pst,18.15
2023-02-02T10:12:00,pst,18.07
2023-02-02T10:13:00,pst,9.38
2023-02-02T10:14:00,pst,18.10
2023-02-02T10:15:00,pst,18.83
2023-02-02T10:16:00,pst,10.08
2023-02-02T10:17:00,pst,10.00
2023-02-02T10:18:00,pst,21.87
2023-02-02T10:19:00,pst,19.19
2023-02-02T10:20:00,pst,19.56
2023-02-02T10:21:00,pst,18.70
2023-02-02T10:22:00,pst,18.63
2023-02-02T10:23:00,pst,18.61
2023-02-02T10:24:00,pst,18.96
2023-02-02T10:25:00,pst,18.98
2023-02-02T10:26:00,pst,19.13
2023-02-02T10:27:00,pst,19.15
2023-02-02T10:28:00,pst,18.96
2023-02-02T10:29:00,pst,18.84
2023-02-02T10:30:00,pst,18.82
2023-02-02T10:31:00,pst,10.55
2023-02-02T10:32:00,pst,10.81
2023-02-02T10:33:00,pst,19.30
2023-02-02T10:34:00,pst,19.38
2023-02-02T10:35:00,pst,19.32
2023-02-02T10:36:00,pst,19.32
2023-02-02T10:37:00,pst,18.70
2023-02-02T10:38:00,pst,18.72
2023-02-02T10:39:00,pst,18.64
2023-02-02T10:40:00,pst,18.25
2023-02-02T10:41:00,pst,9.56
2023-02-02T10:42:00,pst,9.01
2023-02-02T10:43:00,pst,9.24
2023-02-02T10:44:00,pst,9.25
2023-02-02T10:45:00,pst,9.09
2023-02-02T10:46:00,pst,9.37
2023-02-02T10:47:00,pst,9.25
2023-02-02T10:48:00,pst,9.17
2023-02-02T10:49:00,pst,18.19
2023-02-02T10:50:00,pst,18.01
2023-02-02T10:51:00,pst,18.09
2023-02-02T10:52:00,pst,9.66
2023-02-02T10:53:00,pst,8.95
2023-02-02T10:54:00,pst,9.26
2023-02-02T10:55:00,pst,9.06
2023-02-02T10:56:00,pst,8.64
2023-02-02T10:57:00,pst,8.92
2023-02-02T10:58:00,pst,8.90
2023-02-02T10:59:00,pst,8.63
2023-02-02T11:00:00,pst,8.74
2023-02-02T11:01:00,pst,8.66
2023-02-02T11:02:00,pst,8.69
2023-02-02T11:03:00,pst,24.48
2023-02-02T11:04:00,pst,13.24
2023-02-02T11:05:00,pst,13.21
2023-02-02T11:06:00,pst,13.21
2023-02-02T11:07:00,pst,13.31
2023-02-02T11:08:00,pst,14.53
2023-02-02T11:09:00,pst,13.84
2023-02-02T11:10:00,pst,13.99
2023-02-02T11:11:00,pst,13.90
2023-02-02T11:12:00,pst,13.86
2023-02-02T11:13:00,pst,12.80
2023-02-02T11:14:00,pst,12.79
2023-02-02T11:15:00,pst,12.72
2023-02-02T11:16:00,pst,12.46
2023-02-02T11:17:00,pst,12.43
2023-02-02T11:18:00,pst,12.50
2023-02-02T11:19:00,pst,13.25
2023-02-02T11:20:00,pst,13.18
2023-02-02T11:21:00,pst,13.23
2023-02-02T11:22:00,pst,13.23
2023-02-02T11:23:00,pst,13.20
2023-02-02T11:24:00,pst,13.04
2023-02-02T11:25:00,pst,12.39
2023-02-02T11:26:00,pst,12.37
2023-02-02T11:27:00,pst,12.39
2023-02-02T11:28:00,pst,12.52
2023-02-02T11:29:00,pst,12.53
2023-02-02T11:30:00,pst,12.41
2023-02-02T11:31:00,pst,12.46
2023-02-02T11:32:00,pst,12.80
2023-02-02T11:33:00,pst,12.87
2023-02-02T11:34:00,pst,12.92
2023-02-02T11:35:00,pst,13.64
2023-02-02T11:36:00,pst,13.49
2023-02-02T11:37:00,pst,13.50
2023-02-02T11:38:00,pst,13.55
2023-02-02T11:39:00,pst,13.71
2023-02-02T11:40:00,pst,13.90
2023-02-02T11:41:00,pst,13.09
2023-02-02T11:42:00,pst,13.39
2023-02-02T11:43:00,pst,13.95
2023-02-02T11:44:00,pst,13.91
2023-02-02T11:45:00,pst,13.72
2023-02-02T11:46:00,pst,13.78
2023-02-02T11:47:00,pst,13.77
2023-02-02T11:48:00,pst,13.74
2023-02-02T11:49:00,pst,13.87
2023-02-02T11:50:00,pst,13.14
2023-02-02T11:51:00,pst,13.09
2023-02-02T11:52:00,pst,9.12
2023-02-02T11:53:00,pst,9.17
2023-02-02T11:54:00,pst,12.75
2023-02-02T11:55:00,pst,13.30
2023-02-02T11:56:00,pst,13.43
2023-02-02T11:57:00,pst,12.69
2023-02-02T11:58:00,pst,8.73
2023-02-02T11:59:00,pst,8.66
2023-02-02T12:00:00,pst,8.68
2023-02-02T12:01:00,pst,12.68
2023-02-02T12:02:00,pst,8.57
2023-02-02T12:03:00,pst,8.22
2023-02-02T12:04:00,pst,8.10
2023-02-02T12:05:00,pst,8.10
2023-02-02T12:06:00,pst,8.08
2023-02-02T12:07:00,pst,8.38
2023-02-02T12:08:00,pst,8.28
2023-02-02T12:09:00,pst,9.11
2023-02-02T12:10:00,pst,9.10
2023-02-02T12:11:00,pst,9.09
2023-02-02T12:12:00,pst,9.03
2023-02-02T12:13:00,pst,9.11
2023-02-02T12:14:00,pst,9.14
2023-02-02T12:15:00,pst,8.37
2023-02-02T12:16:00,pst,8.66
2023-02-02T12:17:00,pst,8.68
2023-02-02T12:18:00,pst,8.87
2023-02-02T12:19:00,pst,8.87
2023-02-02T12:20:00,pst,9.13
2023-02-02T12:21:00,pst,8.93
2023-02-02T12:22:00,pst,8.70
2023-02-02T12:23:00,pst,8.57
2023-02-02T12:24:00,pst,8.63
2023-02-02T12:25:00,pst,8.32
2023-02-02T12:26:00,pst,8.97
2023-02-02T12:27:00,pst,8.92
2023-02-02T12:28:00,pst,8.67
2023-02-02T12:29:00,pst,8.81
2023-02-02T12:30:00,pst,8.82
2023-02-02T12:31:00,pst,9.10
2023-02-02T12:32:00,pst,8.39
2023-02-02T12:33:00,pst,8.30
2023-02-02T12:34:00,pst,8.42
2023-02-02T12:35:00,pst,8.25
2023-02-02T12:36:00,pst,8.36
2023-02-02T12:37:00,pst,8.14
2023-02-02T12:38:00,pst,8.23
2023-02-02T12:39:00,pst,8.33
2023-02-02T12:40:00,pst,8.37
2023-02-02T12:41:00,pst,8.30
2023-02-02T12:42:00,pst,9.38
2023-02-02T12:43:00,pst,9.25
2023-02-02T12:44:00,pst,9.14
2023-02-02T12:45:00,pst,9.98
2023-02-02T12:46:00,pst,10.45
2023-02-02T12:47:00,pst,10.38
2023-02-02T12:48:00,pst,8.61
2023-02-02T12:49:00,pst,10.14
2023-02-02T12:50:00,pst,9.89
2023-02-02T12:51:00,pst,9.88
2023-02-02T12:52:00,pst,9.99
2023-02-02T12:53:00,pst,8.64
2023-02-02T12:54:00,pst,8.50
2023-02-02T12:55:00,pst,8.10
2023-02-02T12:56:00,pst,8.21
2023-02-02T12:57:00,pst,7.90
2023-02-02T12:58:00,pst,8.10
2023-02-02T12:59:00,pst,8.70
2023-02-02T13:00:00,pst,8.79
2023-02-02T13:01:00,pst,8.81
2023-02-02T13:02:00,pst,9.04
2023-02-02T13:03:00,pst,21.10
2023-02-02T13:04:00,pst,9.48
2023-02-02T13:05:00,pst,17.51
2023-02-02T13:06:00,pst,17.35
2023-02-02T13:07:00,pst,17.11
2023-02-02T13:08:00,pst,16.88
2023-02-02T13:09:00,pst,8.51
2023-02-02T13:10:00,pst,8.51
2023-02-02T13:11:00,pst,8.36
2023-02-02T13:12:00,pst,8.35
2023-02-02T13:13:00,pst,8.58
2023-02-02T13:14:00,pst,8.68
2023-02-02T13:15:00,pst,9.23
2023-02-02T13:16:00,pst,9.45
2023-02-02T13:17:00,pst,13.45
2023-02-02T13:18:00,pst,13.59
2023-02-02T13:19:00,pst,13.46
2023-02-02T13:20:00,pst,13.22
2023-02-02T13:21:00,pst,12.76
2023-02-02T13:22:00,pst,12.98
2023-02-02T13:23:00,pst,13.35